Madison, SD

5:52 AM CDT on May 29, 2017 (GMT -0500)
Madison Municipal

Weather History for KMDS - December, 2012

Change the Weather History Date:

Tuesday, December 18, 2012

  Actual Average Record
Temperature  
Mean Temperature 22 °F -  
Max Temperature 28 °F 26 °F 53 °F (2011)
Min Temperature 17 °F 8 °F -25 °F (2016)
Degree Days  
Heating Degree Days 42    
Moisture  
Dew Point 25 °F    
Average Humidity 100    
Maximum Humidity 100    
Minimum Humidity 100    
Precipitation  
Precipitation 0.81 in - - ()
Sea Level Pressure  
Sea Level Pressure 29.62 in    
Wind  
Wind Speed 9 mph (SW)    
Max Wind Speed 15 mph    
Max Gust Speed 17 mph    
Visibility 6 miles    
Events Fog , Rain , Snow    
Averages and records for this station are not official NWS values.
T = Trace of Precipitation, MM = Missing Value Source: NWS Daily Summary

Daily Weather History Graph

Daily Weather History Graph

Search for Another Location

Airport or City:

Trip Planner

Search our weather history database for the weather conditions in past years. The results will help you decide how hot, cold, wet, or windy it might be!

Date:

Astronomy

Dec. 18, 2012 Rise Set
Actual Time 7:58 AM CST 4:51 PM CST
Civil Twilight 7:25 AM CST 5:25 PM CST
Nautical Twilight 6:48 AM CST 6:01 PM CST
Astronomical Twilight 6:13 AM CST 6:36 PM CST
Moon 11:27 AM CST (12/18) 11:31 PM CST (12/18)
Length of Visible Light 9h 59m
Length of Day
8h 53m
Waxing Crescent, 35% of the Moon is Illuminated
Dec 18
Waxing Crescent
Dec 19
First Quarter
Dec 28
Full
Jan 4
Last Quarter
Jan 11
New

Hourly Weather History & Observations

Time (CST) Temp. Windchill Dew Point Humidity Pressure Visibility Wind Dir Wind Speed Gust Speed Precip Events Conditions
12:00 AM 24.8 °F 14.0 °F 24.8 °F 100% 29.53 in 3.0 mi SE 11.5 mph - N/A   Overcast
12:20 AM 24.8 °F 14.0 °F 24.8 °F 100% 29.53 in 2.5 mi SE 11.5 mph - N/A   Overcast
12:40 AM 24.8 °F 13.4 °F 24.8 °F 100% 29.52 in 2.0 mi SE 12.7 mph - N/A   Overcast
1:00 AM 24.8 °F 14.6 °F 24.8 °F 100% 29.52 in 1.0 mi SE 10.4 mph - N/A   Overcast
1:20 AM 24.8 °F 12.9 °F 24.8 °F 100% 29.51 in 1.8 mi SE 13.8 mph - N/A   Overcast
1:40 AM 24.8 °F 12.9 °F 24.8 °F 100% 29.51 in 2.0 mi SE 13.8 mph - N/A   Overcast
2:00 AM 24.8 °F 12.4 °F 24.8 °F 100% 29.50 in 1.5 mi ESE 15.0 mph - N/A   Overcast
2:20 AM 24.8 °F 14.0 °F 24.8 °F 100% 29.50 in 2.0 mi ESE 11.5 mph - N/A   Overcast
2:40 AM 24.8 °F 13.4 °F 24.8 °F 100% 29.50 in 3.0 mi SE 12.7 mph 17.3 mph N/A   Overcast
3:00 AM 26.6 °F 16.2 °F 26.6 °F 100% 29.50 in 2.5 mi SE 11.5 mph 17.3 mph N/A   Overcast
3:20 AM 26.6 °F 16.8 °F 26.6 °F 100% 29.50 in 2.0 mi SE 10.4 mph - N/A   Overcast
3:40 AM 26.6 °F 18.2 °F 26.6 °F 100% 29.50 in 2.5 mi ESE 8.1 mph - N/A   Overcast
4:00 AM 26.6 °F 16.2 °F 26.6 °F 100% 29.49 in 2.0 mi ESE 11.5 mph - N/A   Overcast
4:20 AM 26.6 °F 17.5 °F 26.6 °F 100% 29.49 in 1.5 mi East 9.2 mph - N/A Snow Light Snow
5:00 AM 26.6 °F 18.2 °F 26.6 °F 100% 29.49 in 1.5 mi ESE 8.1 mph - 0.30 in Snow Light Snow
5:20 AM 26.6 °F 20.0 °F 26.6 °F 100% 29.49 in 1.5 mi ESE 5.8 mph - 0.07 in Snow Light Snow
5:40 AM 26.6 °F 20.0 °F 26.6 °F 100% 29.50 in 1.8 mi East 5.8 mph - 0.13 in Snow Light Snow
6:00 AM 26.6 °F 20.0 °F 26.6 °F 100% 29.51 in 3.0 mi ENE 5.8 mph - 0.16 in Snow Light Snow
6:20 AM 26.6 °F 20.0 °F 26.6 °F 100% 29.52 in 3.0 mi NE 5.8 mph - 0.01 in Snow Light Snow
6:40 AM 26.6 °F 20.0 °F 26.6 °F 100% 29.52 in 3.0 mi ENE 5.8 mph - 0.06 in Snow Light Snow
7:00 AM 26.6 °F - 26.6 °F 100% 29.54 in 4.0 mi Calm Calm - 0.07 in Snow Light Snow
7:20 AM 26.6 °F 21.2 °F 26.6 °F 100% 29.55 in 7.0 mi NW 4.6 mph - N/A Snow Light Snow
7:40 AM 26.6 °F 22.6 °F 26.6 °F 100% 29.56 in 8.0 mi NNW 3.5 mph - N/A Snow Light Snow
8:00 AM 26.6 °F - 26.6 °F 100% 29.57 in 8.0 mi Calm Calm - N/A   Overcast
8:20 AM 26.6 °F 22.6 °F 26.6 °F 100% 29.57 in 4.0 mi ENE 3.5 mph - N/A   Overcast
8:40 AM 26.6 °F 22.6 °F 26.6 °F 100% 29.58 in 3.0 mi ENE 3.5 mph - N/A   Overcast
9:00 AM 26.6 °F 21.2 °F 26.6 °F 100% 29.59 in 2.5 mi ENE 4.6 mph - N/A   Overcast
9:20 AM 26.6 °F 22.6 °F 26.6 °F 100% 29.59 in 4.0 mi NE 3.5 mph - N/A   Overcast
9:40 AM 26.6 °F 20.0 °F 26.6 °F 100% 29.59 in 5.0 mi ENE 5.8 mph - N/A   Overcast
10:00 AM 26.6 °F - 26.6 °F 100% 29.60 in 5.0 mi Calm Calm - N/A   Mostly Cloudy
10:20 AM 26.6 °F - 26.6 °F 100% 29.61 in 5.0 mi Calm Calm - N/A Rain Light Freezing Rain
10:40 AM 26.6 °F - 26.6 °F 100% 29.62 in 8.0 mi Calm Calm - N/A   Overcast
11:00 AM 26.6 °F 22.6 °F 26.6 °F 100% 29.62 in 10.0 mi WSW 3.5 mph - N/A   Overcast
11:20 AM 26.6 °F 21.2 °F 26.6 °F 100% 29.62 in 10.0 mi WSW 4.6 mph - N/A   Overcast
11:40 AM 28.4 °F 22.2 °F 28.4 °F 100% 29.62 in 10.0 mi SW 5.8 mph - N/A   Overcast
12:00 PM 28.4 °F 23.3 °F 28.4 °F 100% 29.62 in 9.0 mi SSW 4.6 mph - N/A   Overcast
12:20 PM 28.4 °F 22.2 °F 28.4 °F 100% 29.62 in 4.0 mi SSW 5.8 mph - N/A   Overcast
12:40 PM 28.4 °F 22.2 °F 28.4 °F 100% 29.61 in 3.0 mi South 5.8 mph - N/A Snow Light Snow
1:00 PM 28.4 °F 20.4 °F 28.4 °F 100% 29.63 in 1.8 mi SW 8.1 mph - 0.02 in Snow Light Snow
1:20 PM 28.4 °F 19.1 °F 28.4 °F 100% 29.64 in 2.0 mi WSW 10.4 mph - 0.06 in Snow Light Snow
1:40 PM 26.6 °F 19.1 °F 26.6 °F 100% 29.63 in 1.2 mi West 6.9 mph - 0.12 in Snow Light Snow
2:00 PM 26.6 °F 16.8 °F 26.6 °F 100% 29.64 in 2.5 mi West 10.4 mph - 0.16 in Snow Light Snow
2:20 PM 28.4 °F 19.7 °F 28.4 °F 100% 29.63 in 7.0 mi West 9.2 mph - N/A   Mostly Cloudy
2:40 PM 28.4 °F 20.4 °F 28.4 °F 100% 29.64 in 10.0 mi West 8.1 mph - N/A   Mostly Cloudy
3:00 PM 28.4 °F 19.1 °F 28.4 °F 100% 29.65 in 10.0 mi West 10.4 mph - N/A   Mostly Cloudy
3:20 PM 28.4 °F 20.4 °F 28.4 °F 100% 29.64 in 10.0 mi WNW 8.1 mph - N/A   Mostly Cloudy
3:40 PM 26.6 °F 17.5 °F 26.6 °F 100% 29.66 in 10.0 mi WSW 9.2 mph - N/A   Mostly Cloudy
4:00 PM 26.6 °F 16.8 °F 26.6 °F 100% 29.66 in 10.0 mi West 10.4 mph - N/A   Overcast
4:20 PM 26.6 °F 17.5 °F 26.6 °F 100% 29.67 in 10.0 mi West 9.2 mph - N/A   Overcast
4:40 PM 26.6 °F 16.2 °F 26.6 °F 100% 29.68 in 10.0 mi West 11.5 mph - N/A   Overcast
5:00 PM 26.6 °F 16.8 °F 26.6 °F 100% 29.68 in 10.0 mi West 10.4 mph - N/A   Overcast
5:20 PM 26.6 °F 16.2 °F 26.6 °F 100% 29.69 in 10.0 mi West 11.5 mph - N/A   Overcast
5:40 PM 26.6 °F 18.2 °F 26.6 °F 100% 29.69 in 10.0 mi West 8.1 mph - N/A   Overcast
6:00 PM 24.8 °F 16.9 °F 24.8 °F 100% 29.70 in 10.0 mi WSW 6.9 mph - N/A   Overcast
6:20 PM 24.8 °F 16.1 °F 24.8 °F 100% 29.71 in 2.0 mi SW 8.1 mph - N/A   Overcast
6:40 PM 24.8 °F 14.6 °F 24.8 °F 100% 29.72 in 0.2 mi SW 10.4 mph - N/A Fog Light Freezing Fog
7:00 PM 23.0 °F 12.4 °F 23.0 °F 100% 29.73 in 0.2 mi SW 10.4 mph - N/A Fog Light Freezing Fog
7:20 PM 23.0 °F 13.1 °F 23.0 °F 100% 29.74 in 0.2 mi SW 9.2 mph - N/A Fog Light Freezing Fog
7:40 PM 23.0 °F 13.1 °F 23.0 °F 100% 29.74 in 0.2 mi SW 9.2 mph - N/A Fog Light Freezing Fog
8:00 PM 23.0 °F 13.1 °F 23.0 °F 100% 29.75 in 1.0 mi WSW 9.2 mph - N/A   Overcast
8:20 PM 21.2 °F 11.7 °F 21.2 °F 100% 29.75 in 10.0 mi SW 8.1 mph - N/A   Scattered Clouds
8:40 PM 17.6 °F 7.3 °F 17.6 °F 100% 29.76 in 10.0 mi SW 8.1 mph - N/A   Clear
9:00 PM 19.4 °F 7.9 °F 19.4 °F 100% 29.77 in 10.0 mi SW 10.4 mph - N/A   Clear
9:20 PM 19.4 °F 7.2 °F 19.4 °F 100% 29.77 in 10.0 mi WSW 11.5 mph - N/A   Clear
9:40 PM 21.2 °F 10.1 °F 21.2 °F 100% 29.77 in 10.0 mi WSW 10.4 mph - N/A   Clear
10:00 PM 21.2 °F 10.1 °F 21.2 °F 100% 29.78 in 10.0 mi West 10.4 mph - N/A   Scattered Clouds
10:20 PM 19.4 °F 8.6 °F 19.4 °F 100% 29.79 in 10.0 mi WSW 9.2 mph - N/A   Partly Cloudy
10:40 PM 19.4 °F 8.6 °F 19.4 °F 100% 29.79 in 10.0 mi WSW 9.2 mph - N/A   Clear
11:00 PM 19.4 °F 7.9 °F 19.4 °F 100% 29.80 in 10.0 mi WSW 10.4 mph - N/A   Partly Cloudy
11:20 PM 19.4 °F 7.2 °F 19.4 °F 100% 29.81 in 10.0 mi WSW 11.5 mph - N/A   Clear
11:40 PM 19.4 °F 8.6 °F 19.4 °F 100% 29.81 in 10.0 mi West 9.2 mph - N/A   Clear